timestamp,wind_dir_avg,wind_spd_avg,wind_spd_max_dir,wind_spd_gust,battery_voltage,lat,long
2024-03-17 00:04:00+00:00,313.0,3.33,309.0,3.69,12.25,47.59359,-54.27349
2024-03-17 00:14:00+00:00,314.0,3.33,312.0,3.65,12.17,47.59359,-54.27349
2024-03-17 00:24:00+00:00,316.0,3.21,313.0,3.83,12.17,47.59359,-54.27349
2024-03-17 00:34:00+00:00,317.0,3.44,314.0,3.93,12.17,47.59359,-54.27349
2024-03-17 00:44:00+00:00,321.0,3.19,317.0,3.55,12.17,47.59359,-54.27349
2024-03-17 00:54:00+00:00,324.0,1.21,319.0,1.74,12.17,47.59359,-54.27349
2024-03-17 01:04:00+00:00,58.0,3.91,54.0,4.63,12.17,47.59359,-54.27349
2024-03-17 01:14:01+00:00,53.0,5.26,58.0,7.35,12.17,47.59359,-54.27349
2024-03-17 01:24:01+00:00,53.0,4.95,53.0,5.21,12.17,47.59359,-54.27349
2024-03-17 01:34:01+00:00,51.0,4.31,52.0,4.87,12.17,47.59359,-54.27349
2024-03-17 01:44:01+00:00,43.0,4.44,47.0,5.03,12.17,47.59359,-54.27349
2024-03-17 01:54:01+00:00,40.0,3.82,42.0,4.72,12.17,47.59359,-54.27349
2024-03-17 02:04:01+00:00,47.0,4.76,48.0,5.05,12.17,47.59359,-54.27349
2024-03-17 02:14:01+00:00,43.0,4.6,46.0,5.1,12.17,47.59359,-54.27349
2024-03-17 02:24:01+00:00,39.0,4.28,41.0,5.18,12.17,47.59359,-54.27349
2024-03-17 02:34:01+00:00,43.0,5.71,39.0,6.11,12.17,47.59359,-54.27349
2024-03-17 02:44:01+00:00,22.0,4.08,48.0,5.41,12.17,47.59359,-54.27349
2024-03-17 02:54:01+00:00,344.0,3.99,32.0,4.76,12.17,47.59359,-54.27349
2024-03-17 03:04:01+00:00,5.0,3.0,45.0,4.49,12.17,47.59359,-54.27349
2024-03-17 03:14:00+00:00,30.0,4.05,41.0,4.87,12.17,47.59359,-54.27349
2024-03-17 03:24:00+00:00,21.0,3.29,43.0,4.5,12.17,47.59359,-54.27349
2024-03-17 03:34:00+00:00,10.0,2.83,47.0,4.18,12.17,47.59359,-54.27349
2024-03-17 03:44:00+00:00,321.0,2.5,322.0,2.79,12.17,47.59359,-54.27349
2024-03-17 03:54:00+00:00,313.0,2.92,316.0,3.17,12.17,47.59359,-54.27349
2024-03-17 04:04:00+00:00,310.0,1.41,313.0,1.67,12.17,47.59359,-54.27349
2024-03-17 04:14:00+00:00,313.0,2.11,317.0,2.29,12.09,47.59359,-54.27349
2024-03-17 04:24:00+00:00,63.0,3.05,63.0,3.59,12.09,47.59359,-54.27349
2024-03-17 04:34:00+00:00,326.0,2.21,329.0,2.8,12.09,47.59359,-54.27349
2024-03-17 04:44:00+00:00,19.0,2.89,47.0,4.36,12.09,47.59359,-54.27349
2024-03-17 04:54:00+00:00,357.0,2.9,41.0,4.04,12.09,47.59359,-54.27349
2024-03-17 05:04:00+00:00,48.0,4.24,49.0,4.39,12.09,47.59359,-54.27349
2024-03-17 05:14:00+00:00,342.0,3.04,342.0,3.38,12.09,47.59359,-54.27349
2024-03-17 05:24:00+00:00,25.0,1.8,61.0,3.56,12.09,47.59359,-54.27349
2024-03-17 05:34:00+00:00,48.0,3.99,49.0,4.35,12.09,47.59359,-54.27349
2024-03-17 05:44:00+00:00,26.0,4.04,41.0,4.98,12.09,47.59359,-54.27349
2024-03-17 05:54:00+00:00,50.0,3.76,48.0,4.2,12.09,47.59359,-54.27349
2024-03-17 06:04:00+00:00,47.0,4.16,46.0,4.5,12.09,47.59359,-54.27349
2024-03-17 06:14:00+00:00,347.0,1.84,67.0,3.29,12.09,47.59359,-54.27349
2024-03-17 06:24:00+00:00,343.0,1.81,60.0,3.45,12.09,47.59359,-54.27349
2024-03-17 06:34:00+00:00,322.0,3.09,326.0,3.67,12.09,47.59359,-54.27349
2024-03-17 06:44:00+00:00,328.0,2.19,332.0,2.36,12.09,47.59359,-54.27349
2024-03-17 06:54:00+00:00,356.0,2.48,42.0,3.63,12.09,47.59359,-54.27349
2024-03-17 07:04:00+00:00,329.0,2.38,329.0,2.62,12.09,47.59359,-54.27349
2024-03-17 07:14:01+00:00,312.0,1.76,315.0,2.05,12.09,47.59359,-54.27349
2024-03-17 07:24:01+00:00,320.0,2.22,321.0,2.39,12.09,47.59359,-54.27349
2024-03-17 07:34:01+00:00,317.0,2.39,312.0,2.87,12.09,47.59359,-54.27349
2024-03-17 07:44:01+00:00,303.0,2.14,308.0,2.71,12.09,47.59359,-54.27349
2024-03-17 07:54:01+00:00,11.0,1.96,310.0,3.02,12.09,47.59359,-54.27349
2024-03-17 08:04:01+00:00,284.0,2.13,281.0,2.61,12.09,47.59359,-54.27349
2024-03-17 08:14:01+00:00,14.0,1.33,21.0,1.69,12.01,47.59359,-54.27349
2024-03-17 08:24:01+00:00,73.0,0.62,69.0,1.04,12.01,47.59359,-54.27349
2024-03-17 08:34:01+00:00,266.0,2.39,267.0,2.58,12.01,47.59359,-54.27349
2024-03-17 08:44:01+00:00,46.0,0.89,54.0,1.29,12.01,47.59359,-54.27349
2024-03-17 08:54:01+00:00,31.0,0.56,50.0,0.73,12.01,47.59359,-54.27349
2024-03-17 09:04:01+00:00,9.0,0.49,21.0,0.6,12.01,47.59359,-54.27349
2024-03-17 09:14:01+00:00,3.0,0.37,353.0,0.51,12.01,47.59359,-54.27349
2024-03-17 09:24:01+00:00,323.0,1.41,325.0,1.71,12.01,47.59359,-54.27349
2024-03-17 09:34:01+00:00,347.0,0.74,329.0,0.9,12.01,47.59359,-54.27349
2024-03-17 09:44:01+00:00,348.0,1.34,345.0,1.54,12.01,47.59359,-54.27349
2024-03-17 09:54:01+00:00,334.0,1.95,333.0,2.21,12.01,47.59359,-54.27349
2024-03-17 10:04:01+00:00,358.0,1.62,59.0,2.96,12.01,47.59359,-54.27349
2024-03-17 10:14:01+00:00,310.0,1.2,309.0,1.43,11.93,47.59359,-54.27349
2024-03-17 10:24:01+00:00,299.0,1.05,299.0,1.24,11.93,47.59359,-54.27349
2024-03-17 10:34:01+00:00,308.0,0.82,304.0,1.15,11.93,47.59359,-54.27349
2024-03-17 10:44:01+00:00,208.0,1.32,112.0,2.55,11.93,47.59359,-54.27349
2024-03-17 10:54:01+00:00,223.0,1.12,229.0,1.4,11.93,47.59359,-54.27349
2024-03-17 11:04:01+00:00,201.0,1.19,123.0,1.99,11.93,47.59359,-54.27349
2024-03-17 11:14:00+00:00,184.0,2.02,139.0,2.62,12.65,47.59359,-54.27349
2024-03-17 11:24:00+00:00,136.0,1.89,127.0,2.64,12.65,47.59359,-54.27349
2024-03-17 11:34:00+00:00,156.0,1.34,127.0,2.31,12.65,47.59359,-54.27349
2024-03-17 11:44:00+00:00,191.0,1.49,238.0,2.66,12.65,47.59359,-54.27349
2024-03-17 11:54:00+00:00,146.0,1.21,243.0,2.49,12.65,47.59359,-54.27349
2024-03-17 12:04:00+00:00,219.0,1.44,239.0,2.32,12.65,47.59359,-54.27349
2024-03-17 12:14:00+00:00,315.0,0.01,240.0,0.0,13.76,47.59359,-54.27349
2024-03-17 12:24:00+00:00,185.0,1.7,210.0,2.36,13.76,47.59359,-54.27349
2024-03-17 12:34:00+00:00,202.0,1.71,234.0,2.57,13.76,47.59359,-54.27349
2024-03-17 12:44:00+00:00,194.0,2.43,227.0,3.54,13.76,47.59359,-54.27349
2024-03-17 12:54:00+00:00,213.0,2.88,213.0,3.33,13.76,47.59359,-54.27349
2024-03-17 13:04:00+00:00,209.0,2.64,209.0,3.01,13.76,47.59359,-54.27349
2024-03-17 13:14:00+00:00,205.0,3.04,202.0,3.36,13.92,47.59359,-54.27349
2024-03-17 13:24:00+00:00,194.0,3.27,198.0,3.49,13.92,47.59359,-54.27349
2024-03-17 13:34:00+00:00,192.0,3.79,191.0,4.05,13.92,47.59359,-54.27349
2024-03-17 13:44:00+00:00,181.0,3.54,150.0,3.9,13.92,47.59359,-54.27349
2024-03-17 13:54:00+00:00,175.0,3.66,150.0,4.12,13.92,47.59359,-54.27349
2024-03-17 14:04:00+00:00,202.0,4.58,202.0,4.72,13.92,47.59359,-54.27349
2024-03-17 14:14:00+00:00,202.0,4.22,200.0,4.45,13.92,47.59359,-54.27349
2024-03-17 14:24:00+00:00,204.0,4.3,209.0,4.49,13.92,47.59359,-54.27349
2024-03-17 14:34:00+00:00,200.0,3.83,199.0,4.36,13.92,47.59359,-54.27349
2024-03-17 14:44:00+00:00,201.0,4.41,202.0,4.66,13.92,47.59359,-54.27349
2024-03-17 14:54:00+00:00,198.0,4.33,203.0,4.72,13.92,47.59359,-54.27349
2024-03-17 15:04:00+00:00,197.0,4.06,198.0,4.43,13.92,47.59359,-54.27349
2024-03-17 15:14:00+00:00,200.0,3.75,202.0,4.07,13.68,47.59359,-54.27349
2024-03-17 15:24:00+00:00,207.0,5.69,207.0,6.05,13.68,47.59359,-54.27349
2024-03-17 15:34:00+00:00,207.0,5.64,206.0,6.1,13.68,47.59359,-54.27349
2024-03-17 15:44:00+00:00,180.0,5.28,180.0,5.28,13.68,47.59359,-54.27349
2024-03-17 15:54:00+00:00,315.0,0.01,199.0,0.0,13.68,47.59359,-54.27349
2024-03-17 16:04:00+00:00,315.0,0.01,213.0,0.0,13.68,47.59359,-54.27349
2024-03-17 16:14:00+00:00,209.0,6.02,207.0,6.73,14.08,47.59359,-54.27349
2024-03-17 16:24:00+00:00,218.0,8.38,231.0,10.41,14.08,47.59359,-54.27349
2024-03-17 16:34:00+00:00,219.0,7.93,233.0,10.16,14.08,47.59359,-54.27349
2024-03-17 16:44:00+00:00,211.0,7.22,228.0,9.04,14.08,47.59359,-54.27349
2024-03-17 16:54:00+00:00,196.0,5.51,199.0,6.15,14.08,47.59359,-54.27349
2024-03-17 17:04:00+00:00,200.0,6.83,205.0,7.4,14.08,47.59359,-54.27349
2024-03-17 17:14:00+00:00,197.0,6.29,203.0,7.2,14.32,47.59359,-54.27349
2024-03-17 17:24:00+00:00,210.0,7.42,223.0,8.76,14.32,47.59359,-54.27349
2024-03-17 17:34:00+00:00,200.0,6.35,205.0,7.28,14.32,47.59359,-54.27349
2024-03-17 17:44:00+00:00,212.0,5.91,216.0,6.46,14.32,47.59359,-54.27349
2024-03-17 17:54:00+00:00,219.0,7.26,234.0,9.95,14.32,47.59359,-54.27349
2024-03-17 18:04:00+00:00,216.0,7.2,236.0,10.04,14.32,47.59359,-54.27349
2024-03-17 18:14:00+00:00,221.0,8.76,230.0,10.61,14.4,47.59359,-54.27349
2024-03-17 18:24:00+00:00,222.0,7.21,236.0,10.14,14.4,47.59359,-54.27349
2024-03-17 18:34:00+00:00,234.0,9.97,238.0,11.01,14.4,47.59359,-54.27349
2024-03-17 18:44:00+00:00,228.0,9.75,222.0,12.51,14.4,47.59359,-54.27349
2024-03-17 18:54:00+00:00,211.0,7.25,215.0,8.3,14.4,47.59359,-54.27349
2024-03-17 19:04:00+00:00,205.0,7.02,205.0,7.91,14.4,47.59359,-54.27349
2024-03-17 19:14:01+00:00,196.0,6.39,206.0,7.52,13.53,47.59359,-54.27349
2024-03-17 19:24:01+00:00,188.0,5.98,209.0,7.04,13.53,47.59359,-54.27349
2024-03-17 19:34:01+00:00,207.0,6.41,210.0,7.22,13.53,47.59359,-54.27349
2024-03-17 19:44:01+00:00,213.0,6.45,218.0,7.31,13.53,47.59359,-54.27349
2024-03-17 19:54:01+00:00,212.0,5.71,214.0,6.17,13.53,47.59359,-54.27349
2024-03-17 20:04:01+00:00,216.0,6.39,227.0,8.17,13.53,47.59359,-54.27349
2024-03-17 20:14:00+00:00,215.0,6.3,215.0,7.02,13.53,47.59359,-54.27349
2024-03-17 20:24:00+00:00,214.0,5.65,209.0,7.38,13.53,47.59359,-54.27349
2024-03-17 20:34:00+00:00,192.0,4.25,214.0,5.91,13.53,47.59359,-54.27349
2024-03-17 20:44:00+00:00,210.0,4.55,216.0,5.64,13.53,47.59359,-54.27349
2024-03-17 20:54:00+00:00,218.0,5.87,215.0,6.51,13.53,47.59359,-54.27349
2024-03-17 21:04:00+00:00,218.0,6.67,237.0,9.15,13.53,47.59359,-54.27349
2024-03-17 21:14:01+00:00,218.0,5.62,223.0,6.43,13.29,47.59359,-54.27349
2024-03-17 21:24:01+00:00,225.0,6.89,241.0,9.69,13.29,47.59359,-54.27349
2024-03-17 21:34:01+00:00,217.0,6.24,236.0,9.1,13.29,47.59359,-54.27349
2024-03-17 21:44:01+00:00,209.0,4.88,221.0,5.85,13.29,47.59359,-54.27349
2024-03-17 21:54:01+00:00,217.0,5.07,228.0,6.11,13.29,47.59359,-54.27349
2024-03-17 22:04:01+00:00,223.0,5.24,225.0,6.12,13.29,47.59359,-54.27349
2024-03-17 22:14:00+00:00,226.0,5.46,240.0,7.11,12.65,47.59359,-54.27349
2024-03-17 22:24:00+00:00,229.0,4.65,230.0,5.15,12.65,47.59359,-54.27349
2024-03-17 22:34:00+00:00,245.0,4.2,240.0,4.61,12.65,47.59359,-54.27349
2024-03-17 22:44:00+00:00,247.0,4.34,252.0,5.28,12.65,47.59359,-54.27349
2024-03-17 22:54:00+00:00,266.0,3.61,266.0,3.9,12.65,47.59359,-54.27349
2024-03-17 23:04:00+00:00,288.0,3.76,289.0,3.95,12.65,47.59359,-54.27349
2024-03-17 23:14:00+00:00,348.0,0.94,301.0,3.61,12.25,47.59359,-54.27349
2024-03-17 23:24:00+00:00,298.0,4.07,302.0,4.44,12.25,47.59359,-54.27349
2024-03-17 23:34:00+00:00,278.0,7.19,277.0,8.67,12.25,47.59359,-54.27349
2024-03-17 23:44:00+00:00,287.0,4.26,289.0,4.52,12.25,47.59359,-54.27349
2024-03-17 23:54:00+00:00,284.0,4.29,280.0,5.08,12.25,47.59359,-54.27349
